Regional Weather Roundup
Issued by NWS

Home | Current Version | Previous Version | Text Only | Print | Product List | Glossary On
Versions: 1 2 3 4 5 6 7 8 9 10 11 12 13 14 15 16 17 18 19 20 21 22 23 24 25 26 27 28 29 30 31 32 33 34 35 36 37 38 39 40 41 42 43 44 45 46 47 48 49 50
000
ASUS44 KLUB 270401
RWRTX
WEST TEXAS WEATHER ROUNDUP
NATIONAL WEATHER SERVICE LUBBOCK TX
1100 PM CDT TUE MAY 26 2015

NOTE: "FAIR" INDICATES FEW OR NO CLOUDS BELOW 12,000 FEET WITH NO
SIGNIFICANT WEATHER AND/OR OBSTRUCTIONS TO VISIBILITY.

TXZ004-006>008-010-012-014-016-OKZ002-270500-
TEXAS PANHANDLE/OKLAHOMA PANHANDLE

CITY           SKY/WX    TMP DP  RH WIND       PRES   REMARKS
AMARILLO       MOCLDY    67  56  67 E10       30.04R
BORGER         MOCLDY    71  55  56 E3        30.02R
DALHART        CLOUDY    64  54  69 SE10      30.05R
GUYMON         CLOUDY    66  58  75 SE5       30.02R
$$

TXZ026-029-035-045-048-270500-
SOUTHERN PANHANDLE/SOUTH PLAINS/ROLLING PLAINS

CITY           SKY/WX    TMP DP  RH WIND       PRES   REMARKS
CHILDRESS      PTCLDY    68  60  75 SE13      29.98R
LUBBOCK        PTCLDY    66  54  65 NE8       30.02R
$$

TXZ052-054-060>062-072-078-127-140-154-169-270500-
PERMIAN BASIN/CONCHO VALLEY/BIG COUNTRY/EDWARDS PLATEAU

CITY           SKY/WX    TMP DP  RH WIND       PRES   REMARKS
ABILENE        MOCLDY    66  62  87 E17       30.01R
JUNCTION       CLEAR     77  70  79 S5        29.99S
MIDLAND        CLEAR     74  66  76 SE10      30.00R
ODESSA         CLEAR     77  62  59 S12       30.01R
SAN ANGELO     CLEAR     73  67  81 SW7       29.96S
WINK           CLEAR     71  44  37 SE8       29.95R
$$

TXZ055-058-074-075-080-082-270500-
FAR WEST/SOUTHWEST MOUNTAINS/TRANS PECOS

CITY           SKY/WX    TMP DP  RH WIND       PRES   REMARKS
DRYDEN           N/A     77  64  64 VRB7      29.95R
EL PASO        MOCLDY    76  27  16 SE5       30.00R
FORT STOCKTON  CLEAR     75  66  73 SE15G24   29.99R
GUADALUPE PASS CLEAR     73  23  15 NW7       30.13R
MARFA          CLEAR     64  37  36 N10       30.11R
$$

TXZ014-016-019-021>030-083-270500
TEXAS TECH WEST TEXAS MESONET/TEXAS PANHANDLE/NORTHERN SOUTH PLAINS

CITY           SKY/WX    TMP DP  RH WIND       PRES   REMARKS
ABERNATHY 5ENE   N/A     65  54  66 NE5       30.04R
AMARILLO 7SSE    N/A     62  58  86 E6        30.05R
AMHERST 1NE      N/A     66  51  57 E3        30.03R
BOOTLEG 11WNW    N/A     60  53  77 E8        30.08R
CANADIAN 6E      N/A     65  58  79 NE10      29.97R
CAPROCK CYN SP   N/A     64  58  82 NW5       30.00R
CHILDRESS 2NNE   N/A     68  59  73 SE15      29.96R
CLARENDON 2WSW   N/A     63  58  83 CALM      30.01R
CLAUDE 12SW      N/A     64  58  81 NE9       30.04R
DIMMITT 2NE      N/A     62  56  81 E7        30.05R
FLOYDADA 2NNE    N/A     64  58  80 NE5       30.03R
FRIONA 2NE       N/A     62  54  74 E5        30.06R
GOODLETT 3W      N/A     69  59  72 SE13      29.95R
HART 3N          N/A     64  56  74 NE6       30.04R
HEREFORD 2NW     N/A     66  52  60 E5        30.04R
MCLEAN 1E        N/A     67  57  70 E9        30.00R
MEMPHIS 1NE      N/A     67  61  80 E8        29.97R
MULESHOE 2SSW    N/A     59  52  78 E3        30.03R
OLTON 6S         N/A     64  54  68 E8        30.03R
PALO DURO SP     N/A     70  56  61 N5        30.05R
PAMPA 2E         N/A     63  57  81 N2        30.03R
PLAINVIEW 1S     N/A     67  56  68 E5        30.03R
SILVERTON 7ESE   N/A     64  57  79 NE5       30.03R
TULIA 2ENE       N/A     63  57  81 NE8       30.04R
UMBARGER 3NNE    N/A     63  55  76 E5        30.05R
$$

TXZ033>036-039>041-045>048-270500
TEXAS TECH WEST TEXAS MESONET/SOUTH PLAINS

CITY           SKY/WX    TMP DP  RH WIND       PRES   REMARKS
AIKEN 3WSW       N/A     65  58  77 E7        30.05R
ANDREWS 2NE      N/A     70  48  45 E6        30.01R
ANTON 6SSW       N/A     68  50  52 CALM      30.02R
BROWNFIELD 2S    N/A     68  48  48 CALM      30.01R
DENVR CTY 7WNW   N/A     66  44  45 SE5       30.02R
GAIL 2ESE        N/A     66  59  79 S8        29.98R
LAMESA 2SE       N/A     68  57  67 SE8       30.01R
LEVELLAND 4S     N/A     63  49  58 CALM      30.02R
LUBBOCK 3WNW     N/A     61  53  75 SW1       30.02R
MORTON 1ENE      N/A     65  44  47 N7        30.02S
ODONNELL 1N      N/A     68  50  52 S1        30.01R
PLAINS 3N        N/A     65  47  51 SE3       30.03R
RALLS 1SE        N/A     66  54  63 N6        30.02R
REESE CENTER     N/A     69  47  45 S3        30.02R
SEAGRAVES 1SW    N/A     66  47  50 SE2       30.01R
SEMINOLE 2NNE    N/A     66  48  53 SE3       30.00R
SLATON 2NE       N/A     66  50  57 SE6       30.01R
SNYDER 3E        N/A     68  60  74 S8        29.98R
SUNDOWN 8SW      N/A     69  40  35 CALM      30.02R
TAHOKA 3NNE      N/A     69  52  54 SE6       30.01R
WOLFFORTH 6SSW   N/A     66  55  66 CALM      30.02R
$$

TXZ031-032-036>038-042>044-270500-
TEXAS TECH WEST TEXAS MESONET/ROLLING PLAINS

CITY           SKY/WX    TMP DP  RH WIND       PRES   REMARKS
ASPERMONT 3NE    N/A     65  61  87 E8        29.96R
FLUVANNA 3WNW    N/A     69  58  68 S9        29.99R
GUTHRIE 10WSW    N/A     64  59  85 SE5       29.97R
HASKELL 1NW      N/A     66  60  81 SE12      29.95F
JAYTON 1SSE      N/A     65  60  84 E9        29.97R
KNOX CITY 3NW    N/A     67  60  76 SE18      29.94F
LK A HENRY 1NW   N/A     70  54  57 SW7       29.97R
NORTHFIELD 1S    N/A     75  57  52 E7        29.96R
ODELL 4ENE       N/A     69  62  77 S18       29.97R
PADUCAH 10SW     N/A     67  59  75 SE10      29.97R
POST 1NE         N/A     71  56  61 SW1       29.98R
RRING SPRGS 3N   N/A     71  56  60 NE1       29.99R
SEYMOUR 3NW      N/A     68  59  72 SE17      29.95R
SPUR 1W          N/A     66  61  83 CALM      29.96R
WEINERT 2NNE     N/A     66  61  83 SE17      29.96S
WHITE RVR 6NE    N/A     70  53  55 N5        29.98R
$$

TXZ052-054-060>062-072-078-127-140-154-169-270500-
TEXAS TECH WEST TEXAS MESONET/PERMIAN BASIN/
CONCHO VALLEY/BIG COUNTRY/EDWARDS PLATEAU

CITY           SKY/WX    TMP DP  RH WIND       PRES   REMARKS
JUNCTION 1SSW    N/A     77  71  81 S8        30.00R
MERTZON 3NNE     N/A     75  67  78 S6        29.99S
SAN ANGELO 7NW   N/A     69  62  78 W1        29.96S
STRLNG CT 4WSW   N/A     70  66  87 S2        30.00S
ST LAWRNCE 5SW   N/A     70  66  85 SE6       30.01R
SWEETWATR 11SW   N/A     66  60  82 SE5       30.00R
WALL 1E          N/A     76  65  69 S9        29.96S
$$

TXZ055-058-074-075-080-082-270500-
TEXAS TECH WEST TEXAS MESONET/FAR WEST/SOUTHWEST MOUNTAINS/TRANS PECOS

CITY           SKY/WX    TMP DP  RH WIND       PRES   REMARKS
PRSMN GAP BBNP   N/A     77  59  54 NE13      29.96R
$$


USA.gov is the U.S. government's official web portal to all federal, state and local government web resources and services.